Regional Weather Roundup
Issued by NWS

Home | Current Version | Previous Version | Text Only | Print | Product List | Glossary Off
Versions: 1 2 3 4 5 6 7 8 9 10 11 12 13 14 15 16 17 18 19 20 21 22 23 24 25 26 27 28 29 30 31 32 33 34 35 36 37 38 39 40 41 42 43 44 45 46 47 48 49 50

000
ASUS43 KMKX 211821
RWRWI

WISCONSIN REGIONAL WEATHER ROUNDUP
NATIONAL WEATHER SERVICE MILWAUKEE/SULLIVAN WI
100 PM CDT MON AUG 21 2017

NOTE: "FAIR" INDICATES FEW OR NO CLOUDS BELOW 12,000 FEET WITH NO
SIGNIFICANT WEATHER AND/OR OBSTRUCTIONS TO VISIBILITY.

WIZ001-002-006>008-014>016-023>028-211900-
NORTHWEST WISCONSIN

CITY           SKY/WX    TMP DP  RH WIND       PRES   REMARKS
SUPERIOR ARPT    N/A     65  61  87 NE3       29.99F
6HR MIN TEMP:  53; 6HR MAX TEMP:  70;

ASHLAND        PTSUNNY   68  60  75 NE5       29.99F
6HR MIN TEMP:  56; 6HR MAX TEMP:  75;

HAYWARD        CLOUDY    73  60  63 W3        30.01R
6HR MIN TEMP:  53; 6HR MAX TEMP:  76;

SIREN          CLOUDY    72  60  64 NE3       29.99F
6HR MIN TEMP:  58; 6HR MAX TEMP:  75;

CUMBERLAND     MOSUNNY   72  61  68 W3        30.00F
RICE LAKE      MOSUNNY   74  64  70 SW5       30.00F
6HR MIN TEMP:  56; 6HR MAX TEMP:  76;

CHETEK         MOSUNNY   75  65  71 CALM      29.99F
6HR MIN TEMP:  59; 6HR MAX TEMP:  77;

LADYSMITH      SUNNY     75  64  67 CALM      30.01F
6HR MIN TEMP:  59; 6HR MAX TEMP:  77;

EAU CLAIRE     SUNNY     75  68  78 SW5       29.98F
6HR MIN TEMP:  66; 6HR MAX TEMP:  76; 6HR PCP:  0.01;

MENOMONIE      SUNNY     75  69  82 CALM      29.98F
6HR MIN TEMP:  64; 6HR MAX TEMP:  76; 6HR PCP:  0.44;

NEW RICHMOND   CLOUDY    76  62  62 CALM      29.98F
6HR MIN TEMP:  60; 6HR MAX TEMP:  78;

OSCEOLA        PTSUNNY   75  64  67 CALM      30.01S
6HR MIN TEMP:  56; 6HR MAX TEMP:  76;

$$

WIZ003>005-009-010-017-018-211900-
NORTH CENTRAL WISCONSIN

CITY           SKY/WX    TMP DP  RH WIND       PRES   REMARKS
MANITOWISH WTR SUNNY     73  56  55 CALM      30.00F
6HR MIN TEMP:  50; 6HR MAX TEMP:  75;

ARBOR VITAE    CLOUDY    74  60  61 S3        30.00F
6HR MIN TEMP:  57; 6HR MAX TEMP:  77;

WOODRUFF       CLOUDY    74  60  61 S3        30.00F
6HR MIN TEMP:  57; 6HR MAX TEMP:  77;

RHINELANDER    MOSUNNY   75  64  68 SE8       30.02F
6HR MIN TEMP:  61; 6HR MAX TEMP:  77;

EAGLE RIVER    SUNNY     74  56  53 E5        30.01F
6HR MIN TEMP:  53; 6HR MAX TEMP:  76;

LAND O LAKES   SUNNY     75  49  39 CALM      30.03F
6HR MIN TEMP:  52; 6HR MAX TEMP:  76;

PHILLIPS       CLOUDY    74  63  67 S3        29.99S
6HR MIN TEMP:  54; 6HR MAX TEMP:  76;

TOMAHAWK         N/A     73  64  73 SE3       30.01F
6HR MIN TEMP:  57; 6HR MAX TEMP:  76;

MEDFORD        SUNNY     72  66  81 CALM      30.00F
6HR MIN TEMP:  61; 6HR MAX TEMP:  74;

MERRILL        CLOUDY    73  66  78 E3        30.00F
$$

WIZ029-030-035-036-043>047-211900-
CENTRAL WISCONSIN

CITY           SKY/WX    TMP DP  RH WIND       PRES   REMARKS
WAUSAU         CLOUDY    76  67  73 SE7       29.97F
6HR MIN TEMP:  66; 6HR MAX TEMP:  78; 6HR PCP:  0.01;

MOSINEE        MOSUNNY   75  70  83 E6        30.00F
MARSHFIELD     CLOUDY    78  68  71 SE7       29.97F HX  80
6HR MIN TEMP:  64; 6HR MAX TEMP:  81; 6HR PCP: TRACE;

STEVENS POINT  MOSUNNY   76  69  77 SE9       29.98F
6HR MIN TEMP:  63; 6HR MAX TEMP:  78;

WAUPACA        CLOUDY    81  70  69 SE6       29.99F HX  84
6HR MIN TEMP:  66; 6HR MAX TEMP:  82;

WAUTOMA        MOSUNNY   78  70  76 SE7       29.99F HX  80
6HR MIN TEMP:  62; 6HR MAX TEMP:  79;

WISC RAPIDS    CLOUDY    80  68  66 S8        29.98F HX  83
6HR MIN TEMP:  67; 6HR MAX TEMP:  83; 6HR PCP:  0.03;

CAMP DOUGLAS   MOSUNNY   79  70  73 S8        29.98F HX  81
$$

WIZ011>013-019>022-031-037>040-048>050-211900-
NORTHEAST WISCONSIN

CITY           SKY/WX    TMP DP  RH WIND       PRES   REMARKS
ANTIGO         CLOUDY    72  65  77 SE8       30.02F
6HR MIN TEMP:  62; 6HR MAX TEMP:  73;

SHAWANO        PTSUNNY   78  69  74 NE3       30.01F HX  80
6HR MIN TEMP:  66; 6HR MAX TEMP:  80;

OCONTO         PTSUNNY   74  68  80 SE5       30.01S
6HR MIN TEMP:  64; 6HR MAX TEMP:  78;

STURGEON BAY   PTSUNNY   76  72  87 CALM      30.02F
6HR MIN TEMP:  68; 6HR MAX TEMP:  78;

GREEN BAY      SUNNY     78  71  79 S6        30.01F HX  80
6HR MIN TEMP:  65; 6HR MAX TEMP:  79; 6HR PCP:  0.01;

MANITOWOC        N/A    N/A N/A N/A MISG        N/A
APPLETON       PTSUNNY   77  64  65 SW5       30.01F
CLINTONVILLE   MOSUNNY   79  66  65 S7        30.00F HX  81
OSHKOSH        CLOUDY    76  67  73 E6        29.98F
6HR MIN TEMP:  64; 6HR MAX TEMP:  77;

$$

WIZ032>034-041-042-053>061-211900-
SOUTHWEST WISCONSIN

CITY           SKY/WX    TMP DP  RH WIND       PRES   REMARKS
LA CROSSE      PTSUNNY   81  65  58 S10       29.97R HX  83
6HR MIN TEMP:  70; 6HR MAX TEMP:  84;

SPARTA         MOSUNNY   78  64  62 S7        29.98S
6HR MIN TEMP:  60; 6HR MAX TEMP:  81;

VIROQUA        PTSUNNY   74  65  72 CALM      30.02S
6HR MIN TEMP:  65; 6HR MAX TEMP:  76;

BOSCOBEL       CLOUDY    79  67  66 S6        30.01F HX  81
6HR MIN TEMP:  63; 6HR MAX TEMP:  80;

PRAIRIE DU CHI CLOUDY    76  63  64 S5        30.00F
6HR MIN TEMP:  64; 6HR MAX TEMP:  77;

PLATTEVILLE    PTSUNNY   75  69  82 S10       30.04F
6HR MIN TEMP:  65; 6HR MAX TEMP:  78;

$$

WIZ056-057-062-063-064-067-068-211900-
SOUTH CENTRAL WISCONSIN

CITY           SKY/WX    TMP DP  RH WIND       PRES   REMARKS
REEDSBURG      CLOUDY    76  71  84 SE6       30.00F
6HR MIN TEMP:  61; 6HR MAX TEMP:  79;

BARABOO/DELLS  CLOUDY    77  67  71 S9        30.02S
6HR MIN TEMP:  64; 6HR MAX TEMP:  78;

LONE ROCK      CLOUDY    77  72  84 SE5       30.00F
6HR MIN TEMP:  63; 6HR MAX TEMP:  78;

MINERAL POINT  CLOUDY    77  72  83 S8        30.04F
MADISON        CLOUDY    76  69  79 SE7       30.02F
6HR MIN TEMP:  64; 6HR MAX TEMP:  77;

MIDDLETON      CLOUDY    78  70  76 S7        30.03F
6HR MIN TEMP:  64; 6HR MAX TEMP:  78;

WATERTOWN      CLOUDY    74  72  94 S5        30.03F
6HR MIN TEMP:  64; 6HR MAX TEMP:  77;

MONROE         CLOUDY    75  70  83 SE9       30.06F
JANESVILLE     CLOUDY    81  70  69 SW5       30.05S HX  84
$$

WIZ051-052-058>065-066-070>072-211900-
SOUTHEAST WISCONSIN

CITY           SKY/WX    TMP DP  RH WIND       PRES   REMARKS
MILWAUKEE      CLOUDY    82  70  66 NE5       30.03F HX  86
6HR MIN TEMP:  70; 6HR MAX TEMP:  83;

WAUKESHA       MOSUNNY   75  66  73 CALM      30.07F
MILWAUKEE/TIMM PTSUNNY   79  66  65 CALM      30.04F HX  81
RACINE         CLOUDY    80  72  76 W5        30.06F HX  84
6HR MIN TEMP:  70; 6HR MAX TEMP:  80;

KENOSHA        CLOUDY    80  70  71 NW3       30.05F HX  83
6HR MIN TEMP:  69; 6HR MAX TEMP:  83;

FOND DU LAC    CLOUDY    76  65  68 SE6       30.01F
6HR MIN TEMP:  64; 6HR MAX TEMP:  77;

SHEBOYGAN      CLOUDY    77  69  76 CALM      30.03F
6HR MIN TEMP:  63; 6HR MAX TEMP:  79;

WEST BEND      PTSUNNY   75  70  83 SW5       30.04F
JUNEAU         LGT RAIN  74  68  81 S5        30.04S
6HR MIN TEMP:  64; 6HR MAX TEMP:  77;

$$

LSZ147-162-211900-
LAKE SUPERIOR

STATION/POSITION TIME  TEMP    WIND        PRES    WAVE
                       AIR SEA DIR/SP/G            HT/PER
                 (UTC) (F)     (DEG/KT/KT) (MB)    (FT/S)
W MID LAKE BUOY  1750   62 62  290/  4/  4 1015.9F   0
DEVILS ISLAND    1800   62     310/  4/  5 1015.9F
SAXON HARBOR     1730   67      10/  4/  4 1015.6F
$$

LMZ867-665-643>646-211900-
LAKE MICHIGAN

STATION/POSITION TIME  TEMP    WIND        PRES    WAVE
                       AIR SEA DIR/SP/G            HT/PER
                 (UTC) (F)     (DEG/KT/KT) (MB)    (FT/S)
S GREEN BAY BUOY 1800   72 73  210/  8/  8 1016.1
N MID LAKE BUOY  1750   70 70  200/  2/  2 1016.7F   1/ 4
NORTHPORT PIER   1740   72      90/  3/  3 1015.9F
KEWAUNEE LAKESHO 1754   71     170/  5/  6 1016.0F
SHEBOYGAN LAKESH 1800   72     150/  9/ 1



USA.gov is the U.S. government's official web portal to all federal, state and local government web resources and services.